Date,TemperatureHighF,TemperatureAvgF,TemperatureLowF,DewpointHighF,DewpointAvgF,DewpointLowF,HumidityHigh,HumidityAvg,HumidityLow,PressureMaxIn,PressureMinIn,WindSpeedMaxMPH,WindSpeedAvgMPH,GustSpeedMaxMPH,PrecipitationSumIn
2013-1-1,52.4,40.4,30.5,39.0,33.7,27.5,95,78,52,30.31,30.21,4,1,6,0.00
2013-1-2,51.6,40.4,32.4,38.0,33.9,31.1,97,79,48,30.31,30.22,7,2,10,0.00
2013-1-3,52.8,40.6,30.2,39.0,33.8,27.9,95,78,54,30.27,30.16,4,1,5,0.00
2013-1-4,52.7,40.7,30.4,39.9,35.5,29.1,96,83,57,30.29,30.19,4,1,5,0.01
2013-1-5,56.8,43.4,31.5,42.3,38.0,30.5,97,83,56,30.32,30.20,3,1,6,0.00
2013-1-6,52.5,43.8,34.7,44.1,41.1,33.9,98,90,70,30.29,30.10,6,2,7,0.49
2013-1-7,52.0,44.2,36.8,46.5,42.2,36.5,99,93,76,30.20,30.11,5,1,7,0.34
2013-1-8,48.1,40.8,35.5,44.4,39.8,35.2,99,96,86,30.27,30.16,6,1,7,0.01
2013-1-9,54.7,45.1,35.8,46.5,42.1,35.3,99,90,73,30.27,30.16,3,1,5,0.01
2013-1-10,50.3,44.2,36.7,46.7,41.3,34.2,98,90,74,30.16,29.93,8,2,11,0.02
2013-1-11,48.4,39.4,30.4,38.6,33.5,28.9,96,81,55,30.18,30.05,8,2,11,0.01
2013-1-12,50.6,38.5,29.5,35.4,30.1,27.1,96,74,41,30.25,30.14,4,1,5,0.00
2013-1-13,45.0,35.4,26.8,29.7,26.1,22.7,92,71,41,30.26,30.16,4,1,6,0.00
2013-1-14,43.5,35.2,23.5,30.0,24.1,14.7,93,66,38,30.29,30.18,7,3,12,0.00
2013-1-15,48.4,38.3,28.6,28.1,23.9,18.6,77,58,31,30.45,30.28,6,2,8,0.00
2013-1-16,52.5,40.0,32.0,35.1,31.4,27.0,90,73,47,30.52,30.44,3,1,4,0.00
2013-1-17,55.3,41.8,30.4,38.7,33.6,28.4,94,74,47,30.46,30.29,3,0,5,0.00
2013-1-18,58.4,44.0,31.0,39.6,35.2,28.9,94,73,45,30.31,30.19,3,0,5,0.00
2013-1-19,59.2,44.4,30.0,41.1,35.5,28.7,97,74,41,30.27,30.16,5,1,5,0.00
2013-1-20,53.7,42.3,36.5,39.7,35.5,31.4,88,77,54,30.30,30.18,5,1,7,0.00
2013-1-21,61.2,45.9,31.4,39.7,35.6,29.6,95,70,38,30.26,30.14,4,1,5,0.00
2013-1-22,61.0,44.8,33.4,40.3,36.3,31.4,94,74,40,30.22,30.13,2,0,4,0.00
2013-1-23,60.8,47.8,34.2,43.7,39.2,32.4,95,74,44,30.17,30.04,5,1,7,0.00
2013-1-24,59.6,49.5,45.0,48.4,44.0,39.7,98,82,51,30.11,30.00,6,2,8,0.14
2013-1-25,57.0,51.7,47.1,52.6,50.1,46.6,98,94,83,30.20,30.08,6,2,8,0.03
2013-1-26,64.5,56.8,51.5,56.4,53.7,51.0,100,90,71,30.19,30.01,5,2,8,0.01
2013-1-27,60.7,52.4,44.2,53.4,47.2,40.8,99,84,53,30.04,29.93,7,4,10,0.00
2013-1-28,53.8,44.9,37.1,41.7,37.7,32.9,96,77,45,30.16,30.04,6,1,9,0.00
2013-1-29,56.7,44.5,33.0,39.5,36.1,30.7,94,74,44,30.28,30.14,9,2,14,0.00
2013-1-30,58.5,46.8,37.3,42.0,38.5,34.7,92,75,48,30.35,30.24,9,2,14,0.00
2013-1-31,61.9,49.0,37.4,45.3,41.3,35.3,93,76,53,30.37,30.27,5,1,7,0.00